Voltar ao catálogo

FENGYUN 1C DEB

AtivoPO
NORAD 31000·DEBRIS·🇨🇳 China

Lançado May 10, 1999 de Taiyuan Satellite Launch Center

Loading…

Próximas Passagens (próximas 24 horas)

TLE

EnvelhecendoSource: Space-Track

Época: Sep 6, 2026, 22:37 UTC

1 31000U 99025BCS 26249.94274948  .00000625  00000-0  32851-3 0  9994
2 31000  97.5604 241.0576 0164024   2.2569  25.4295 14.10182907737369

Acompanhe FENGYUN 1C DEB em tempo real com AllMySat

Download on the App Store